Weather History for Sheridan, WY

Change the Weather History Date:

Sunday, October 14, 2012

  Actual Average Record
Temperature  
Mean Temperature 53 °F 46 °F  
Max Temperature 71 °F 61 °F 84 °F (1958)
Min Temperature 35 °F 32 °F 11 °F (1969)
Degree Days  
Heating Degree Days 12 19  
Month to date heating degree days 256 230  
Since 1 July heating degree days 406 533  
Cooling Degree Days 0 0  
Month to date cooling degree days 0 0  
Year to date cooling degree days 664 418  
Growing Degree Days 3 (Base 50)    
Moisture  
Dew Point 33 °F    
Average Humidity 54    
Maximum Humidity 85    
Minimum Humidity 22    
Precipitation  
Precipitation 0.00 in 0.05 in 0.48 in (2013)
Month to date precipitation 0.49 0.76  
Year to date precipitation 7.48 12.24  
Sea Level Pressure  
Sea Level Pressure 30.08 in    
Wind  
Wind Speed 5 mph (SW)    
Max Wind Speed 16 mph    
Max Gust Speed 22 mph    
Visibility 10 miles    
Events      
T = Trace of Precipitation, MM = Missing Value Source: NWS Daily Summary

Daily Weather History Graph

Daily Weather History Graph

Search for Another Location

Airport:

Trip Planner

Search our weather history database for the weather conditions in past years. The results will help you decide how hot, cold, wet, or windy it might be!

Date:

Astronomy

Oct. 14, 2012 Rise Set
Actual Time 7:22 AM MDT 6:24 PM MDT
Civil Twilight 6:53 AM MDT 6:53 PM MDT
Nautical Twilight 6:19 AM MDT 7:27 PM MDT
Astronomical Twilight 5:45 AM MDT 8:01 PM MDT
Moon 6:24 AM MDT (10/14) 5:44 PM MDT (10/14)
Length of Visible Light 12h 00m
Length of Day
11h 01m
Waning Crescent, 1% of the Moon is Illuminated
Oct 14
Waning Crescent
Oct 15
New
Oct 21
First Quarter
Oct 29
Full
Nov 6
Last Quarter

Hourly Weather History & Observations

Time (MDT) Temp. Windchill Dew Point Humidity Pressure Visibility Wind Dir Wind Speed Gust Speed Precip Events Conditions
12:53 AM 46.0 °F 42.5 °F 34.0 °F 63% 30.08 in 10.0 mi WNW 6.9 mph - N/A   Clear
1:53 AM 44.1 °F 39.5 °F 34.0 °F 68% 30.10 in 10.0 mi WNW 8.1 mph - N/A   Clear
2:53 AM 42.1 °F - 34.0 °F 73% 30.12 in 10.0 mi Calm Calm - N/A   Mostly Cloudy
3:53 AM 42.1 °F - 33.1 °F 70% 30.13 in 10.0 mi Calm Calm - N/A   Clear
4:53 AM 45.0 °F 43.5 °F 34.0 °F 65% 30.12 in 10.0 mi NW 3.5 mph - N/A   Scattered Clouds
5:53 AM 37.9 °F 34.4 °F 33.1 °F 83% 30.17 in 10.0 mi SW 4.6 mph - N/A   Clear
6:53 AM 35.1 °F 32.2 °F 30.9 °F 85% 30.19 in 10.0 mi South 3.5 mph - N/A   Clear
7:53 AM 39.9 °F - 32.0 °F 73% 30.19 in 10.0 mi Calm Calm - N/A   Partly Cloudy
8:53 AM 45.0 °F - 36.0 °F 71% 30.18 in 10.0 mi Calm Calm - N/A   Clear
9:53 AM 54.0 °F - 35.1 °F 49% 30.16 in 10.0 mi East 3.5 mph - N/A   Clear
10:53 AM 60.1 °F - 34.0 °F 38% 30.14 in 10.0 mi ENE 3.5 mph - N/A   Clear
11:53 AM 64.9 °F - 30.9 °F 28% 30.10 in 10.0 mi NNW 15.0 mph 21.9 mph N/A   Clear
12:53 PM 66.0 °F - 30.9 °F 27% 30.09 in 10.0 mi WNW 8.1 mph - N/A   Clear
1:53 PM 68.0 °F - 28.4 °F 23% 30.09 in 10.0 mi WNW 5.8 mph - N/A   Clear
2:53 PM 68.0 °F - 28.0 °F 22% 30.04 in 10.0 mi Variable 4.6 mph - N/A   Clear
3:53 PM 70.0 °F - 28.0 °F 21% 30.02 in 10.0 mi NW 10.4 mph - N/A   Clear
4:53 PM 68.0 °F - 30.9 °F 25% 30.00 in 10.0 mi SSW 3.5 mph - N/A   Clear
5:53 PM 64.9 °F - 34.0 °F 32% 30.03 in 10.0 mi South 5.8 mph - N/A   Clear
6:53 PM 51.1 °F - 36.0 °F 56% 30.06 in 10.0 mi Variable 3.5 mph - N/A   Clear
7:53 PM 46.0 °F 42.5 °F 36.0 °F 68% 30.06 in 10.0 mi South 6.9 mph - N/A   Clear
8:53 PM 46.9 °F - 33.1 °F 59% 30.02 in 10.0 mi SSW 8.1 mph - N/A   Clear
9:53 PM 48.9 °F - 32.0 °F 52% 29.97 in 10.0 mi South 5.8 mph - N/A   Clear
10:53 PM 42.1 °F 39.2 °F 32.0 °F 67% 29.96 in 10.0 mi South 4.6 mph - N/A   Clear
11:53 PM 46.9 °F - 30.9 °F 54% 29.92 in 10.0 mi SSW 4.6 mph - N/A   Clear